#timestamp,LO_Frequency,Hit,StdDev 
1591178415.0,286046999.3,N
1591178416.0,286046999.3,N
1591178435.8,286046998.9,N
1591178455.6,286046999.2,N
1591178475.5,286046999.1,N
1591178495.3,286046999.1,N
1591178515.1,286046974.6,Y
1591178535.9,286047000.7,P
1591178555.7,286047001.2,N
1591178575.6,286046998.6,N
1591178595.4,286046998.5,N
1591178615.2,286046999.3,N
1591178635.1,286047000.5,N
1591178636.0,286047000.5,N
1591178655.8,286046996.5,Y
1591178675.7,286047000.6,P
1591178695.5,286047002.3,P
1591178715.3,286046999.0,N
1591178735.2,286047011.9,Y
1591178755.0,286046999.6,P
1591178755.9,286046999.6,N
1591178775.8,286046995.2,P
1591178795.6,286046993.6,Y
1591178815.4,286046999.0,P
1591178865.3,286047001.9,E
1591178875.2,286046999.5,N
1591178895.1,286046993.9,P
1591178896.0,286046993.9,N
1591178915.8,286046998.4,N
1591178935.6,286046998.8,N
1591178955.5,286047000.4,N
1591178975.3,286046998.8,N
1591178995.2,286047003.8,N
1591179015.9,286046998.6,N
1591179035.7,286046997.3,N
1591179055.6,286046996.7,N
1591179075.4,286046999.3,N
1591179095.3,286046999.0,N
1591179115.1,286046998.8,N
1591179116.0,286046998.8,N
1591179135.8,286046999.3,N
1591179155.7,286046998.4,N
1591179175.5,286046997.5,N
1591179195.3,286046997.0,N
1591179215.2,286046999.2,N
1591179235.0,286046995.4,N
1591179235.9,286046995.4,N
1591179255.8,286046999.3,N
1591179275.6,286046998.0,N
1591179295.4,286047001.0,N
1591179315.3,286046998.7,N
1591179335.1,286046995.4,N
1591179355.8,286047000.9,N
1591179375.7,286046999.4,N
1591179395.5,286046997.1,N
1591179415.4,286046995.3,N
1591179435.2,286046997.1,N
1591179455.0,286047001.2,N
1591179455.9,286047001.2,N
1591179475.8,286046994.9,N
1591179495.6,286046996.5,N
1591179515.5,286047009.1,Y
1591179535.3,286047002.6,P
1591179555.1,286047000.1,N
1591179575.9,286047000.6,N
1591179595.7,286046999.9,N
1591179615.6,286047001.9,N
1591179635.4,286047002.5,N
1591179655.2,286047001.5,N
1591179675.1,286047001.5,N
1591179676.0,286047001.5,N
1591179695.8,286047002.3,N
1591179715.6,286047000.1,N
1591179735.5,286047000.4,N
1591179755.3,286047000.3,N
1591179775.2,286046999.7,N
1591179795.9,286047000.9,N
1591179815.7,286047000.5,N
1591179835.6,286046998.7,N
1591179855.4,286046997.0,N
1591179875.3,286046999.6,N
1591179895.1,286046995.1,Y
1591179896.0,286046995.1,P
1591179915.8,286046995.7,N
1591179935.7,286046995.0,N
1591179955.5,286046995.6,N
1591179975.4,286046995.2,N
1591179995.2,286046997.7,N
1591180015.0,286046997.8,N
1591180015.9,286046997.8,N
1591180035.8,286046997.5,N
1591180055.6,286046997.9,N
1591180075.4,286046993.5,Y
1591180095.3,286046996.7,P
1591180115.1,286046998.7,P
1591180135.9,286047001.2,N
1591180155.7,286046998.5,N
1591180175.5,286047000.0,N
1591180195.4,286047002.7,N
1591180215.2,286047002.0,N
1591180235.0,286047001.9,N
1591180236.0,286047001.9,N
1591180255.8,286047001.5,N
1591180275.6,286047002.6,N
1591180295.5,286047002.4,N
1591180315.3,286047000.1,N
1591180335.1,286047000.2,N
1591180355.9,286047000.0,N
1591180375.7,286047000.3,N
1591180395.6,286047000.9,N
1591180415.4,286046999.8,N
1591180435.2,286047000.3,N
1591180455.1,286047001.1,N
1591180456.0,286047001.1,N
1591180475.8,286046998.3,N
1591180495.7,286046997.3,N
1591180515.5,286046997.5,N
1591180535.3,286046997.1,N
1591180555.2,286046996.8,N
1591180575.0,286046998.2,N
1591180575.9,286046998.2,N
1591180595.8,286047001.2,N
1591180615.6,286047002.4,N
1591180635.4,286047003.6,N
1591180655.3,286047004.5,N
1591180675.1,286047007.2,Y
1591180695.8,286047006.0,P
1591180715.7,286047001.9,N
1591180735.5,286047004.6,N
1591180755.4,286047008.6,Y
1591180775.2,286047004.6,P
1591180795.0,286047009.2,P
1591180795.9,286047009.2,P
1591180815.8,286047006.5,N
1591180835.6,286047005.1,N
1591180855.5,286047005.1,N
1591180875.3,286047007.2,Y
1591180895.1,286046999.9,P
1591180915.9,286047001.9,N
1591180935.7,286046999.0,N
1591180955.6,286046999.8,N
1591180975.4,286047002.2,N
1591180995.2,286046999.7,N
1591181015.1,286047002.0,N
1591181016.0,286047002.0,N
1591181035.8,286047000.8,N
1591181055.6,286046996.5,N
1591181075.5,286046997.7,N
1591181095.3,286046997.2,N
1591181115.2,286046995.2,N
1591181135.9,286046995.7,N
1591181155.7,286046995.9,N
1591181175.6,286046992.8,N
1591181195.4,286046990.6,N
1591181215.3,286046990.3,N
1591181235.1,286046988.7,N
1591181255.8,286046988.7,N
1591181275.7,286046991.6,N
1591181295.5,286046991.2,N
1591181315.4,286046994.8,N
1591181335.2,286046994.1,N
1591181355.0,286046993.7,N
1591181355.9,286046993.7,N
1591181375.8,286046993.7,N
1591181395.6,286046995.9,N
1591181415.4,286046994.2,N
1591181435.3,286046991.9,N
1591181455.1,286046991.7,N
1591181475.9,286046992.3,N
1591181495.7,286046992.4,N
1591181515.5,286046993.0,N
1591181535.4,286046992.4,N
1591181555.2,286046990.5,N
1591181575.1,286046990.6,N
1591181576.0,286046990.6,Y
1591181595.8,286046996.5,P
1591181615.6,286046998.4,N
1591181635.5,286047000.1,N
1591181655.3,286047000.9,N
1591181675.1,286046996.7,N
1591181695.9,286046995.3,N
1591181715.7,286046996.8,N
1591181735.6,286046995.0,N
1591181755.4,286046993.7,N
1591181775.2,286046995.6,N
1591181795.1,286046991.7,Y
1591181796.0,286046991.7,P
1591181815.8,286046997.7,N
1591181835.7,286046997.8,N
1591181855.5,286046997.6,N
1591181875.4,286046997.7,N
1591181895.2,286046996.7,N
1591181915.0,286046995.6,N
1591181915.9,286046995.6,N
1591181935.8,286046997.7,N
1591181955.6,286046998.4,N
1591181975.4,286046996.9,N
1591181995.3,286046996.7,N
